15min,AgWx,beryljct,423,28JAN2019:00:00:00,27.6,12.87,26.9,26.8,26.4,27.4,25.7,91,93,90,0.449,24.1,25.4,23.1,2.718,2.8,173,9.1,4.4,-0.00010,-0.00012,.,34.3,25,0,0,35.8,9.86,0.00,0.00
15min,AgWx,beryljct,423,28JAN2019:00:15:00,27.3,12.87,26.9,26.4,26.3,27.1,25.3,91,92,89,0.434,23.9,24.8,22.8,0.986,1.5,188,22,3.5,-0.00014,-0.00018,.,34.4,24,0,0,35.5,9.86,0.00,0.00
15min,AgWx,beryljct,423,28JAN2019:00:30:00,27.0,12.87,25.8,25.4,26.1,26.5,25.4,90,91,90,0.422,23.7,24.1,22.8,1.491,1.4,125,1.7,2.6,-0.00014,-0.00019,.,34.3,24,0,0,35.6,9.87,0.00,0.00
15min,AgWx,beryljct,423,28JAN2019:00:45:00,26.7,12.72,24.0,23.8,25.4,26.2,23.8,91,92,90,0.392,23.1,24.0,21.2,3.135,2.0,344,88,4.8,-0.00012,-0.00015,.,34.3,25,0,0,35.5,9.87,0.00,0.00
15min,AgWx,beryljct,423,28JAN2019:01:00:00,26.2,12.7,23.9,23.8,23.6,23.8,23.3,92,92,90,0.402,21.5,22.0,21.1,3.749,2.7,311,1.8,3.7,-0.00010,-0.00012,.,34.3,25,0,0,35.7,9.87,0.00,0.00
15min,AgWx,beryljct,423,28JAN2019:01:15:00,25.9,12.8,22.7,22.9,23.7,24.4,22.9,92,93,92,0.387,21.8,22.7,21.0,2.148,2.9,341,11,3.7,-0.00010,-0.00011,.,34.3,25,0,0,35.7,9.87,0.00,0.00
15min,AgWx,beryljct,423,28JAN2019:01:30:00,25.4,12.8,24.9,24.2,23.1,24.3,22.3,93,94,92,0.414,21.3,22.7,20.2,3.529,3.1,339,13,4.0,-0.00009,-0.00011,.,34.3,25,0,0,35.7,9.87,0.00,0.00
15min,AgWx,beryljct,423,28JAN2019:01:45:00,25.1,12.81,23.5,23.0,22.9,24.2,22.1,92,93,92,0.391,21.0,22.6,20.2,0,2.2,336,3.5,3.9,-0.00011,-0.00013,.,34.3,25,0,0,35.7,9.87,0.00,0.00
15min,AgWx,beryljct,423,28JAN2019:02:00:00,24.6,12.81,23.9,23.5,23.4,23.7,22.8,93,93,93,0.399,21.6,22.0,21.0,0,0.1,11,7.3,1.2,-0.00019,-0.00030,.,34.3,24,0,0,35.6,9.87,0.01,0.00
15min,AgWx,beryljct,423,28JAN2019:02:15:00,24.3,12.8,24.0,23.3,23.2,23.4,23.0,93,93,93,0.397,21.4,21.6,21.1,2.302,0.8,28,45,3.2,-0.00016,-0.00022,.,34.3,24,0,0,35.5,9.87,0.00,0.00
15min,AgWx,beryljct,423,28JAN2019:02:30:00,24.2,12.79,23.7,23.0,23.0,23.3,22.8,93,93,93,0.391,21.2,21.6,20.9,1.885,2.5,173,3.4,4.1,-0.00010,-0.00013,.,34.3,25,0,0,35.8,9.87,0.00,0.00
15min,AgWx,beryljct,423,28JAN2019:02:45:00,24.0,12.8,23.9,23.3,23.1,23.3,23.0,93,93,93,0.396,21.4,21.6,21.1,0,0.4,171,0.0,1.9,-0.00017,-0.00026,.,34.3,24,0,0,35.6,9.87,0.00,0.00
15min,AgWx,beryljct,423,28JAN2019:03:00:00,23.7,12.79,24.7,23.1,23.2,23.5,22.7,93,93,92,0.391,21.3,21.7,20.7,1.82,0.7,178,11,2.8,-0.00016,-0.00023,.,34.3,25,0,0,35.6,9.87,0.00,0.00
15min,AgWx,beryljct,423,28JAN2019:03:15:00,23.6,12.78,25.9,24.5,24.0,24.5,23.2,93,94,92,0.417,22.2,22.8,21.4,1.184,1.2,206,0.0,1.9,-0.00014,-0.00019,.,34.3,24,0,0,35.7,9.87,0.00,0.00
15min,AgWx,beryljct,423,28JAN2019:03:30:00,23.8,12.76,26.4,25.6,25.2,25.6,24.5,93,93,92,0.436,23.4,23.8,22.4,1.403,1.3,206,0.0,1.7,-0.00014,-0.00019,.,34.3,25,0,0,35.8,9.87,0.00,0.00
15min,AgWx,beryljct,423,28JAN2019:03:45:00,24.2,12.74,24.3,25.0,26.1,26.7,25.0,92,93,89,0.410,24.0,24.5,22.3,4.165,1.7,240,44,4.2,-0.00014,-0.00018,.,34.2,25,0,0,35.6,9.87,0.00,0.00
15min,AgWx,beryljct,423,28JAN2019:04:00:00,24.2,12.75,23.5,23.1,23.3,24.8,22.8,91,92,89,0.387,21.0,22.1,20.4,3.946,3.7,303,2.4,4.3,-0.00007,-0.00008,.,34.2,25,0,0,35.6,9.87,0.00,0.00
15min,AgWx,beryljct,423,28JAN2019:04:15:00,24.1,12.74,23.1,22.5,22.6,23.1,22.1,91,92,91,0.380,20.5,21.0,19.9,4.319,3.8,316,4.2,4.5,-0.00007,-0.00008,.,34.2,25,0,0,35.6,9.87,0.00,0.00
15min,AgWx,beryljct,423,28JAN2019:04:30:00,23.9,12.73,24.4,23.5,23.1,23.5,22.5,92,92,91,0.395,21.1,21.5,20.5,3.332,3.8,316,4.8,4.3,-0.00008,-0.00009,.,34.2,25,0,0,35.7,9.87,0.00,0.00
15min,AgWx,beryljct,423,28JAN2019:04:45:00,23.8,12.73,23.9,23.0,23.0,23.5,22.5,91,92,90,0.387,20.7,21.4,20.1,4.341,2.6,326,5.7,4.6,-0.00010,-0.00012,.,34.2,25,0,0,35.5,9.87,0.00,0.00
15min,AgWx,beryljct,423,28JAN2019:05:00:00,23.9,12.72,22.6,22.3,23.4,23.8,22.3,92,92,90,0.370,21.3,21.8,19.9,2.872,4.3,313,22,5.8,-0.00007,-0.00008,.,34.2,24,0,0,35.7,9.87,0.00,0.00
15min,AgWx,beryljct,423,28JAN2019:05:15:00,23.9,12.71,24.5,23.6,23.4,23.9,22.3,92,92,90,0.397,21.3,21.9,19.9,2.148,1.8,320,60,3.0,-0.00012,-0.00016,.,34.2,24,0,0,35.6,9.87,0.00,0.00
15min,AgWx,beryljct,423,28JAN2019:05:30:00,23.5,12.6,23.1,22.6,23.0,23.8,22.5,91,92,91,0.380,20.9,21.8,20.4,0.044,0.2,21,0.0,1.9,-0.00018,-0.00028,.,34.2,24,0,0,35.6,9.87,0.00,0.00
15min,AgWx,beryljct,423,28JAN2019:05:45:00,23.2,12.55,22.4,21.4,21.8,22.5,20.8,92,92,91,0.362,19.7,20.5,18.5,1.82,0.4,21,0.1,1.8,-0.00017,-0.00025,.,34.2,24,0,0,35.6,9.87,0.00,0.00
15min,AgWx,beryljct,423,28JAN2019:06:00:00,22.6,12.57,21.2,20.8,21.2,21.5,20.8,92,92,92,0.352,19.2,19.6,18.7,0,0.6,21,0.1,2.5,-0.00015,-0.00022,.,34.2,24,0,0,35.6,9.87,0.00,0.00
15min,AgWx,beryljct,423,28JAN2019:06:15:00,22.0,12.56,21.1,20.5,20.9,21.3,20.5,92,92,91,0.346,18.9,19.3,18.3,1.776,0.2,21,0.1,1.8,-0.00017,-0.00026,.,34.2,25,0,0,35.6,9.87,0.00,0.00
15min,AgWx,beryljct,423,28JAN2019:06:30:00,21.6,12.67,21.8,20.7,20.3,20.7,19.9,92,92,91,0.352,18.3,18.8,17.8,0,0.5,20,4.5,1.8,-0.00015,-0.00022,.,34.2,25,0,0,35.7,9.87,0.00,0.00
15min,AgWx,beryljct,423,28JAN2019:06:45:00,21.5,12.69,22.1,21.6,21.6,22.0,20.3,92,93,92,0.366,19.7,20.3,18.2,0.329,1.2,272,9.4,2.9,-0.00013,-0.00018,.,34.2,25,0,0,35.7,9.87,0.00,0.00
15min,AgWx,beryljct,423,28JAN2019:07:00:00,21.5,12.69,22.9,22.3,21.8,22.6,21.4,92,93,92,0.376,19.9,20.7,19.3,0.197,0.1,271,0.0,0.8,0.00001,0.00001,.,34.1,25,0,0,35.5,9.87,0.00,0.00
15min,AgWx,beryljct,423,28JAN2019:07:15:00,21.5,12.68,20.9,20.4,21.1,22.3,20.3,91,92,91,0.345,19.0,20.2,18.1,0.702,0.3,271,0.0,0.7,0.00001,0.00001,.,34.1,24,0,0,35.6,9.87,0.00,0.00
15min,AgWx,beryljct,423,28JAN2019:07:30:00,21.2,12.65,21.9,21.3,20.6,21.3,20.1,92,92,91,0.361,18.6,19.4,17.9,1.841,0.9,271,0.0,1.9,0.00002,0.00002,.,34.1,25,1,0,35.4,9.87,0.00,0.00
15min,AgWx,beryljct,423,28JAN2019:07:45:00,21.0,12.66,21.1,20.8,20.9,21.3,20.4,92,92,91,0.352,18.8,19.3,18.2,0.767,0.7,271,0.1,2.0,0.00003,0.00003,.,34.1,24,4,0,35.7,9.87,0.00,0.00
15min,AgWx,beryljct,423,28JAN2019:08:00:00,20.8,12.85,20.2,19.7,20.0,20.8,19.4,91,92,91,0.335,17.8,18.7,17.1,0,0.4,271,0.1,1.3,0.00010,0.00011,.,34.1,25,28,0,35.6,9.87,0.00,0.00
15min,AgWx,beryljct,423,28JAN2019:08:15:00,21.2,13.06,21.8,21.4,20.7,21.5,19.7,92,92,91,0.361,18.7,19.5,17.6,0.767,0.3,278,3.9,0.9,0.00019,0.00021,.,34.1,24,60,0,35.4,9.87,0.00,0.00
15min,AgWx,beryljct,423,28JAN2019:08:30:00,22.2,13.43,23.9,22.9,22.1,22.9,21.3,92,92,91,0.384,20.1,20.8,19.3,0,0.1,282,0.0,1.1,0.00028,0.00030,.,34.1,24,93,0,36.0,9.87,0.00,0.00
15min,AgWx,beryljct,423,28JAN2019:08:45:00,23.8,14.92,25.2,25.1,23.9,25.1,22.8,91,92,90,0.414,21.6,22.6,20.7,0,0.1,281,0.0,0.7,0.00042,0.00045,.,34.1,25,142,0,38.6,9.87,0.00,0.00
15min,AgWx,beryljct,423,28JAN2019:09:00:00,25.9,14.87,26.4,25.7,25.2,25.7,24.7,91,92,90,0.432,22.9,23.6,22.1,0,0.3,282,0.4,1.2,0.00055,0.00059,.,34.1,25,182,0,42.3,9.87,0.00,0.00
15min,AgWx,beryljct,423,28JAN2019:09:15:00,28.2,14.82,27.8,27.2,26.4,27.2,25.7,91,92,91,0.458,24.2,25.0,23.6,0.986,0.1,283,0.6,1.0,0.00066,0.00070,.,34.1,25,203,0,40.8,9.86,0.00,0.00
15min,AgWx,beryljct,423,28JAN2019:09:30:00,30.4,14.84,29.7,29.2,28.3,29.4,27.2,90,91,87,0.491,25.8,26.8,25.0,0.066,0.1,285,0.1,0.9,0.00083,0.00088,.,34.1,25,246,0,46.9,9.86,0.00,0.00
15min,AgWx,beryljct,423,28JAN2019:09:45:00,32.6,14.73,29.4,29.1,29.2,29.9,28.8,89,91,88,0.486,26.4,27.5,25.9,1.491,1.3,153,33,3.2,0.00099,0.00107,.,34.1,26,303,0,50.5,9.86,0.00,0.00
15min,AgWx,beryljct,423,28JAN2019:10:00:00,34.3,14.7,31.8,30.9,29.9,30.9,29.1,90,90,89,0.522,27.2,28.3,26.4,0.592,1.8,131,6.4,2.8,0.00116,0.00125,.,34.1,25,357,0,50.8,9.86,0.00,0.00
15min,AgWx,beryljct,423,28JAN2019:10:15:00,35.8,14.69,32.8,32.3,31.8,32.5,30.8,84,90,81,0.502,27.4,28.5,26.7,3.376,2.7,358,42,4.7,0.00132,0.00145,.,34.1,25,395,0,48.9,9.86,0.00,0.00
15min,AgWx,beryljct,423,28JAN2019:10:30:00,37.2,14.69,33.1,33.0,32.7,33.2,32.3,80,83,78,0.506,27.4,28.1,26.7,4.472,3.8,7.5,16,5.9,0.00143,0.00160,.,34.1,25,426,0,47.4,9.86,0.00,0.00
15min,AgWx,beryljct,423,28JAN2019:10:45:00,38.2,14.75,34.3,33.9,33.3,34.0,32.9,79,81,78,0.517,27.5,28.3,27.0,0.745,3.0,23,23,5.5,0.00159,0.00177,.,34.1,26,458,0,49.2,9.86,0.00,0.00
15min,AgWx,beryljct,423,28JAN2019:11:00:00,39.4,14.68,35.3,35.5,34.6,35.5,33.9,76,78,74,0.527,28.0,28.5,27.5,3.595,1.9,40,26,4.1,0.00181,0.00198,.,34.1,26,491,0,53.8,9.87,0.00,0.00
15min,AgWx,beryljct,423,28JAN2019:11:15:00,40.7,14.33,36.9,36.7,36.0,36.7,35.3,73,76,70,0.519,28.2,29.1,27.7,2.784,2.7,54,15,5.1,0.00194,0.00216,.,34.0,24,519,0,55.3,9.87,0.00,0.00
15min,AgWx,beryljct,423,28JAN2019:11:30:00,42.0,14.21,38.9,39.2,37.9,39.2,36.6,69,72,65,0.545,28.6,29.9,27.9,6.138,4.8,48,19,8.8,0.00206,0.00236,.,34.1,24,545,0,53.5,9.87,0.00,0.00
15min,AgWx,beryljct,423,28JAN2019:11:45:00,42.8,14.19,38.9,38.8,38.9,39.2,38.6,67,69,65,0.535,28.7,29.7,27.9,5.502,5.3,33,12,8.2,0.00218,0.00253,.,34.0,24,568,0,52.2,9.86,0.00,0.00
15min,AgWx,beryljct,423,28JAN2019:12:00:00,43.5,14.18,40.3,40.2,39.6,40.2,38.7,67,70,65,0.560,29.4,30.8,28.5,1.995,4.5,35,16,7.1,0.00225,0.00257,.,34.1,24,573,0,53.3,9.86,0.00,0.00
15min,AgWx,beryljct,423,28JAN2019:12:15:00,44.5,14.19,43.4,43.0,42.0,43.1,40.1,62,67,58,0.576,29.9,31.3,28.9,2.85,4.1,44,18,8.5,0.00248,0.00284,.,34.0,24,592,0,56.3,9.86,0.00,0.00
15min,AgWx,beryljct,423,28JAN2019:12:30:00,45.8,14.12,45.3,45.1,44.5,45.3,43.0,54,61,49,0.515,28.8,30.6,27.2,16.05,10.5,55,12,16.9,0.00263,0.00333,.,34.0,24,596,0,55.1,9.86,0.00,0.00
15min,AgWx,beryljct,423,28JAN2019:12:45:00,46.7,14.15,45.2,45.2,45.3,45.5,45.0,51,53,48,0.514,28.1,29.1,26.8,17.16,14.3,54,10,21.8,0.00277,0.00365,.,34.0,24,608,0,52.8,9.86,0.00,0.00
15min,AgWx,beryljct,423,28JAN2019:13:00:00,47.3,14.1,46.3,45.8,45.6,46.2,45.1,51,54,49,0.519,28.7,30.2,27.3,14.69,13.6,54,8.3,17.7,0.00275,0.00360,.,34.0,24,600,0,52.3,9.86,0.00,0.00
15min,AgWx,beryljct,423,28JAN2019:13:15:00,47.9,14.06,46.5,46.4,46.1,46.4,45.8,50,52,47,0.542,28.3,29.7,27.2,17.49,14.0,54,10,18.3,0.00283,0.00373,.,34.0,24,603,0,52.4,9.86,0.00,0.00
15min,AgWx,beryljct,423,28JAN2019:13:30:00,48.5,14.02,46.7,46.2,46.3,46.7,45.9,50,53,48,0.528,28.8,30.4,27.5,13.48,15.7,55,12,20.4,0.00278,0.00373,.,34.0,24,589,0,51.8,9.85,0.00,0.00
15min,AgWx,beryljct,423,28JAN2019:13:45:00,48.8,14.02,47.6,47.0,46.6,47.0,46.2,50,52,47,0.569,28.8,30.3,27.5,12.06,15.7,51,8.7,20.5,0.00275,0.00371,.,34.0,25,571,0,51.3,9.85,0.00,0.00
15min,AgWx,beryljct,423,28JAN2019:14:00:00,49.1,14.01,46.9,46.7,46.8,47.1,46.5,51,53,49,0.550,29.4,30.7,28.3,17.76,16.8,46,9.4,24.5,0.00269,0.00366,.,34.0,24,553,0,50.8,9.85,0.00,0.00
15min,AgWx,beryljct,423,28JAN2019:14:15:00,49.3,14.03,46.5,45.8,46.4,47.2,45.7,51,52,49,0.516,29.2,30.7,27.9,19.99,16.1,50,10,22.3,0.00218,0.00310,.,34.0,24,399,0,49.5,9.85,0.00,0.00
15min,AgWx,beryljct,423,28JAN2019:14:30:00,48.8,14.01,46.5,46.4,46.1,46.6,45.9,51,53,49,0.540,28.7,30.1,27.8,16.49,17.4,52,8.0,21.9,0.00209,0.00304,.,34.0,24,377,0,48.4,9.85,0.00,0.00
15min,AgWx,beryljct,423,28JAN2019:14:45:00,48.3,14.04,45.2,44.6,45.4,46.3,44.5,51,53,49,0.520,28.5,29.7,27.6,16.05,16.8,57,7.8,21.9,0.00178,0.00266,.,34.0,24,268,0,47.6,9.85,0.00,0.00
15min,AgWx,beryljct,423,28JAN2019:15:00:00,47.5,14.09,44.6,44.4,44.5,44.8,44.3,53,54,51,0.522,28.3,29.0,27.7,17.43,16.2,55,8.7,20.2,0.00162,0.00245,.,34.0,25,253,0,47.5,9.85,0.00,0.00
15min,AgWx,beryljct,423,28JAN2019:15:15:00,47.1,14.14,45.4,45.0,44.5,45.0,44.2,54,55,52,0.556,28.8,29.7,27.9,20.58,16.9,53,8.7,23.9,0.00194,0.00278,.,34.0,24,384,0,48.8,9.85,0.00,0.00
15min,AgWx,beryljct,423,28JAN2019:15:30:00,47.7,14.12,45.3,45.3,45.2,45.5,44.9,54,56,53,0.558,29.6,30.7,28.7,19.4,18.0,50,7.7,23.2,0.00224,0.00314,.,34.0,24,464,0,49.2,9.84,0.00,0.00
15min,AgWx,beryljct,423,28JAN2019:15:45:00,48.0,14.04,44.6,44.4,44.9,45.4,44.3,54,56,51,0.546,29.1,30.7,27.6,12.63,17.5,52,7.4,22.8,0.00173,0.00258,.,34.0,24,303,0,47.9,9.84,0.00,0.00
15min,AgWx,beryljct,423,28JAN2019:16:00:00,47.4,14.06,44.2,43.6,44.0,44.4,43.6,54,56,53,0.518,28.5,29.5,27.9,18.66,14.4,58,8.6,18.8,0.00122,0.00194,.,34.0,24,188,0,46.7,9.85,0.00,0.00
15min,AgWx,beryljct,423,28JAN2019:16:15:00,46.5,14.09,43.6,43.2,43.3,43.7,43.1,56,58,53,0.517,28.5,29.4,27.8,18,13.8,57,8.7,19.6,0.00106,0.00173,.,34.0,24,157,0,46.1,9.85,0.00,0.00
15min,AgWx,beryljct,423,28JAN2019:16:30:00,45.8,14.16,43.3,43.0,43.0,43.2,42.9,55,57,54,0.517,28.1,28.9,27.7,12.19,14.4,59,6.2,18.9,0.00117,0.00185,.,34.1,24,187,0,45.5,9.84,0.00,0.00
15min,AgWx,beryljct,423,28JAN2019:16:45:00,45.6,14.15,43.5,43.2,43.1,43.2,43.0,56,58,54,0.524,28.3,29.2,27.7,12.78,14.3,59,8.0,19.2,0.00129,0.00198,.,34.1,24,228,0,45.8,9.84,0.00,0.00
15min,AgWx,beryljct,423,28JAN2019:17:00:00,45.8,14.08,42.8,42.3,42.8,43.3,42.3,57,58,56,0.522,28.5,29.1,27.9,17.65,14.3,61,6.6,21.2,0.00050,0.00056,.,34.1,24,189,0,45.8,9.85,0.00,0.00
15min,AgWx,beryljct,423,28JAN2019:17:15:00,45.0,13.32,41.3,40.9,41.7,42.4,40.9,59,62,56,0.530,28.5,28.8,27.8,8.88,11.1,66,7.2,17.5,0.00034,0.00040,.,34.1,24,77,0,43.2,9.85,0.00,0.00
15min,AgWx,beryljct,423,28JAN2019:17:30:00,43.5,13.18,40.2,39.7,40.3,40.9,39.7,61,63,60,0.513,28.1,28.5,27.6,11.11,10.3,66,7.1,15.3,0.00025,0.00030,.,34.2,24,25,0,40.6,9.85,0.00,0.00
15min,AgWx,beryljct,423,28JAN2019:17:45:00,42.2,13.14,39.5,39.2,39.5,39.9,39.1,60,62,60,0.488,26.9,27.7,26.4,10.72,12.7,59,7.7,17.0,0.00027,0.00031,.,34.2,24,11,0,39.8,9.85,0.00,0.00
15min,AgWx,beryljct,423,28JAN2019:18:00:00,41.0,13.11,38.2,38.0,38.4,39.2,38.0,62,63,60,0.482,26.5,26.8,26.2,10.33,10.1,56,11,13.5,0.00021,0.00025,.,34.2,24,3,0,38.6,9.85,0.00,0.00
15min,AgWx,beryljct,423,28JAN2019:18:15:00,40.1,13.1,37.9,37.4,37.7,38.0,37.4,63,63,62,0.476,26.1,26.4,25.8,10.35,10.6,55,7.9,13.7,0.00021,0.00025,.,34.3,24,1,0,38.1,9.85,0.00,0.00
15min,AgWx,beryljct,423,28JAN2019:18:30:00,39.2,13.07,36.3,36.0,36.7,37.5,36.0,65,66,63,0.474,25.9,26.2,25.7,8.11,9.3,65,7.1,11.9,0.00017,0.00021,.,34.3,24,0,0,36.7,9.85,0.00,0.00
15min,AgWx,beryljct,423,28JAN2019:18:45:00,38.2,13.06,35.7,35.7,35.9,36.0,35.7,66,67,65,0.470,25.8,26.1,25.5,8.09,10.6,57,8.0,14.6,0.00017,0.00020,.,34.3,25,0,0,35.9,9.85,0.00,0.00
15min,AgWx,beryljct,423,28JAN2019:19:00:00,37.5,13.04,35.6,35.4,35.4,35.7,35.2,67,68,66,0.469,25.6,25.8,25.4,8.75,9.3,63,7.4,12.7,0.00015,0.00018,.,34.4,25,0,0,35.8,9.85,0.00,0.00
15min,AgWx,beryljct,423,28JAN2019:19:15:00,36.9,13.05,35.5,34.9,35.2,35.4,34.9,68,69,67,0.468,25.6,25.8,25.4,12.14,10.2,61,6.4,13.0,0.00015,0.00018,.,34.4,24,0,0,35.5,9.85,0.00,0.00
15min,AgWx,beryljct,423,28JAN2019:19:30:00,36.6,13.03,34.6,34.3,34.9,35.2,34.3,68,70,67,0.470,25.5,25.7,25.3,7.103,10.3,65,8.6,14.4,0.00015,0.00018,.,34.4,24,0,0,35.5,9.85,0.00,0.00
15min,AgWx,beryljct,423,28JAN2019:19:45:00,36.3,13.01,34.9,34.2,34.3,34.4,34.2,70,71,70,0.469,25.5,25.8,25.4,6.335,7.4,63,7.3,9.6,0.00010,0.00013,.,34.4,25,0,0,35.4,9.85,0.00,0.00
15min,AgWx,beryljct,423,28JAN2019:20:00:00,35.8,13,33.9,33.8,34.2,34.4,33.8,70,71,69,0.467,25.4,25.5,25.2,4.998,6.8,56,6.6,9.0,0.00009,0.00012,.,34.5,24,0,0,35.4,9.85,0.00,0.00
15min,AgWx,beryljct,423,28JAN2019:20:15:00,35.2,13,33.6,33.1,33.4,33.7,33.1,72,72,71,0.461,25.3,25.5,25.1,2.85,4.3,66,9.8,6.4,0.00003,0.00005,.,34.5,24,0,0,35.2,9.85,0.00,0.00
15min,AgWx,beryljct,423,28JAN2019:20:30:00,34.5,13,32.9,32.8,32.8,33.2,32.7,73,73,72,0.454,25.0,25.2,24.7,1.14,1.4,78,18,2.9,-0.00008,-0.00010,.,34.5,24,0,0,35.6,9.85,0.00,0.00
15min,AgWx,beryljct,423,28JAN2019:20:45:00,33.9,12.99,33.5,32.6,32.7,32.8,32.6,72,73,72,0.451,24.8,25.0,24.5,1.6,1.3,41,42,2.8,-0.00009,-0.00011,.,34.5,24,0,0,35.7,9.85,0.00,0.00
15min,AgWx,beryljct,423,28JAN2019:21:00:00,33.4,12.84,32.9,32.3,32.4,32.7,32.1,72,73,72,0.450,24.5,24.8,24.4,1.403,2.4,352,8.0,4.5,-0.00003,-0.00003,.,34.5,25,0,0,35.3,9.85,0.00,0.00
15min,AgWx,beryljct,423,28JAN2019:21:15:00,33.0,12.96,32.9,32.5,32.1,32.5,31.8,73,74,72,0.448,24.4,24.6,24.2,1.907,1.7,328,16,2.8,-0.00006,-0.00008,.,34.5,24,0,0,35.8,9.85,0.00,0.00
15min,AgWx,beryljct,423,28JAN2019:21:30:00,32.8,12.96,33.3,32.6,32.6,32.8,32.5,72,72,71,0.447,24.5,24.7,24.3,0,0.5,311,0.0,1.9,-0.00013,-0.00018,.,34.5,24,0,0,35.6,9.85,0.00,0.00
15min,AgWx,beryljct,423,28JAN2019:21:45:00,32.8,12.96,33.3,32.6,32.9,33.2,32.5,71,73,70,0.454,24.6,24.8,24.4,2.039,1.4,324,6.8,2.9,-0.00007,-0.00009,.,34.5,24,0,0,35.6,9.86,0.01,0.00
15min,AgWx,beryljct,423,28JAN2019:22:00:00,32.9,12.96,33.5,32.6,32.5,32.8,32.2,74,75,73,0.461,25.0,25.3,24.7,0,1.0,327,6.5,2.9,-0.00010,-0.00013,.,34.5,24,0,0,35.8,9.86,0.00,0.00
15min,AgWx,beryljct,423,28JAN2019:22:15:00,32.9,12.95,33.3,33.1,32.9,33.3,32.6,73,74,71,0.461,25.1,25.3,24.8,0.899,0.4,44,13,2.0,-0.00014,-0.00021,.,34.5,24,0,0,35.8,9.86,0.00,0.00
15min,AgWx,beryljct,423,28JAN2019:22:30:00,32.9,12.94,32.8,32.6,32.7,33.1,32.5,74,75,72,0.469,25.4,25.6,25.1,1.491,2.1,76,15,3.2,-0.00005,-0.00005,.,34.5,25,0,0,35.4,9.86,0.00,0.00
15min,AgWx,beryljct,423,28JAN2019:22:45:00,32.9,12.94,32.7,32.2,32.3,32.6,32.0,76,77,75,0.472,25.6,25.9,25.4,3.661,2.3,77,9.1,3.7,-0.00004,-0.00005,.,34.5,24,0,0,35.8,9.86,0.00,0.00
15min,AgWx,beryljct,423,28JAN2019:23:00:00,33.0,12.92,32.8,32.4,32.2,32.4,32.0,78,79,77,0.485,26.1,26.4,25.7,4.626,4.9,61,4.6,6.1,0.00002,0.00003,.,34.5,25,0,0,35.3,9.86,0.00,0.00
15min,AgWx,beryljct,423,28JAN2019:23:15:00,33.2,12.92,33.3,32.8,32.7,33.0,32.3,78,79,77,0.493,26.6,26.8,26.4,5.217,5.2,63,6.2,6.6,0.00002,0.00004,.,34.5,24,0,0,35.6,9.86,0.00,0.00
15min,AgWx,beryljct,423,28JAN2019:23:30:00,33.4,12.92,32.8,32.3,32.7,33.0,32.2,79,80,78,0.493,26.8,26.9,26.7,2.061,3.7,54,21,6.2,-0.00001,-0.00000,.,34.5,24,0,0,35.5,9.86,0.00,0.00
15min,AgWx,bigpiney,439,28JAN2019:00:00:00,23.9,12.74,21.7,21.0,21.6,21.9,21.0,79,79,78,0.307,16.1,16.4,15.4,9.95,9.7,300,9.7,11.8,0.00003,0.00004,28.7,29.7,8,0,0,0.0,0.06,0.00,0.00
15min,AgWx,bigpiney,439,28JAN2019:00:15:00,23.6,12.74,21.8,21.2,21.9,22.8,21.1,78,80,76,0.308,16.0,16.9,15.3,9.21,9.7,296,7.9,13.3,0.00003,0.00004,28.7,29.6,8,0,0,0.0,0.06,0.00,0.00
15min,AgWx,bigpiney,439,28JAN2019:00:30:00,23.3,12.71,21.2,20.8,21.2,21.5,20.8,79,79,78,0.303,15.6,16.0,15.3,8.13,8.5,289,6.5,10.1,0.00002,0.00003,28.7,29.6,8,0,0,0.0,0.06,0.00,0.00
15min,AgWx,bigpiney,439,28JAN2019:00:45:00,23.0,12.73,21.3,20.7,20.5,20.9,20.2,80,81,79,0.305,15.3,15.7,15.0,8.94,7.3,293,6.9,9.0,0.00000,0.00001,28.7,29.7,8,0,0,0.0,0.06,0.00,0.00
15min,AgWx,bigpiney,439,28JAN2019:01:00:00,22.7,12.71,20.5,20.5,20.9,21.2,20.4,79,80,79,0.302,15.5,15.9,15.0,6.007,7.4,289,7.0,10.0,0.00000,0.00001,28.7,29.8,8,0,0,0.0,0.06,0.00,0.00
15min,AgWx,bigpiney,439,28JAN2019:01:15:00,22.4,12.71,19.8,19.2,19.9,20.5,19.2,80,80,79,0.287,14.7,15.2,14.0,5.196,5.6,291,5.2,6.9,-0.00002,-0.00001,28.6,29.8,8,0,0,0.0,0.06,0.00,0.00
15min,AgWx,bigpiney,439,28JAN2019:01:30:00,21.8,12.7,17.9,17.6,18.6,19.5,17.6,81,82,80,0.273,13.6,14.4,12.8,4.954,5.2,299,5.2,6.0,-0.00002,-0.00002,28.6,29.8,8,0,0,0.0,0.06,0.00,0.00
15min,AgWx,bigpiney,439,28JAN2019:01:45:00,21.0,12.69,17.5,16.9,17.0,17.6,16.4,82,84,81,0.269,12.5,13.0,11.9,4.143,4.1,315,14,5.4,-0.00004,-0.00004,28.6,29.7,8,0,0,0.0,0.06,0.00,0.00
15min,AgWx,bigpiney,439,28JAN2019:02:00:00,20.3,12.68,18.6,18.1,17.5,18.1,17.0,81,83,80,0.273,12.8,13.1,12.4,5.174,4.6,295,8.5,5.2,-0.00003,-0.00003,28.6,29.7,8,0,0,0.0,0.06,0.00,0.00
15min,AgWx,bigpiney,439,28JAN2019:02:15:00,19.8,12.68,18.5,17.5,16.9,18.1,15.6,81,83,79,0.273,12.0,13.0,10.6,4.472,4.3,262,8.2,5.7,-0.00003,-0.00003,28.6,29.7,8,0,0,0.0,0.06,0.00,0.00
15min,AgWx,bigpiney,439,28JAN2019:02:30:00,19.3,12.67,20.2,19.8,19.5,21.1,17.3,76,82,72,0.270,13.2,13.9,12.1,6.357,6.0,287,16,8.4,-0.00000,0.00001,28.6,29.7,8,0,0,0.0,0.06,0.00,0.00
15min,AgWx,bigpiney,439,28JAN2019:02:45:00,19.2,12.66,17.8,17.7,19.2,19.9,17.7,74,74,72,0.246,12.1,12.8,10.5,5.196,6.7,292,14,7.8,0.00002,0.00003,28.5,29.7,8,0,0,0.0,0.06,0.00,0.00
15min,AgWx,bigpiney,439,28JAN2019:03:00:00,19.1,12.66,15.5,15.8,16.8,17.8,15.8,75,76,73,0.228,10.1,11.2,8.9,4.757,5.8,309,12,6.9,0.00000,0.00001,28.5,29.7,8,0,0,0.0,0.06,0.00,0.00
15min,AgWx,bigpiney,439,28JAN2019:03:15:00,18.7,12.65,17.3,16.4,15.9,17.3,14.8,72,75,69,0.222,8.3,9.8,7.2,6.993,6.4,306,8.6,8.6,0.00002,0.00003,28.5,29.7,8,0,0,0.0,0.06,0.00,0.00
15min,AgWx,bigpiney,439,28JAN2019:03:30:00,18.3,12.64,13.9,14.2,16.0,16.6,14.2,69,70,68,0.203,7.6,8.3,6.3,4.691,5.7,315,11,7.5,0.00002,0.00003,28.5,29.7,8,0,0,0.0,0.06,0.00,0.00
15min,AgWx,bigpiney,439,28JAN2019:03:45:00,17.8,12.63,17.4,16.5,15.1,16.5,13.6,71,73,70,0.223,7.4,8.4,6.2,6.993,6.5,304,7.4,7.8,0.00002,0.00003,28.5,29.7,8,0,0,0.0,0.06,0.00,0.00
15min,AgWx,bigpiney,439,28JAN2019:04:00:00,17.6,12.63,16.6,15.5,16.4,16.9,15.5,68,70,67,0.208,7.7,8.4,6.8,7.388,6.7,310,9.8,8.1,0.00003,0.00004,28.4,29.7,8,0,0,0.0,0.06,0.00,0.00
15min,AgWx,bigpiney,439,28JAN2019:04:15:00,17.4,12.62,14.9,15.1,16.3,17.0,15.1,67,68,66,0.203,7.4,8.0,6.2,7.695,7.2,313,11,9.1,0.00004,0.00005,28.4,29.6,8,0,0,0.0,0.06,0.00,0.00
15min,AgWx,bigpiney,439,28JAN2019:04:30:00,17.2,12.61,15.2,14.6,15.0,15.6,14.5,69,70,68,0.204,6.7,7.3,6.1,8.35,7.8,303,8.9,9.2,0.00004,0.00005,28.4,29.7,8,0,0,0.0,0.06,0.00,0.00
15min,AgWx,bigpiney,439,28JAN2019:04:45:00,17.0,12.6,17.5,17.3,16.4,17.6,14.6,68,70,66,0.217,7.7,8.4,6.5,7.804,9.1,297,8.5,10.9,0.00005,0.00006,28.3,29.6,8,0,0,0.0,0.06,0.00,0.00
15min,AgWx,bigpiney,439,28JAN2019:05:00:00,16.9,12.6,13.3,12.8,13.9,17.3,12.5,69,72,65,0.194,5.5,7.8,4.1,5.546,6.1,343,20,7.6,0.00002,0.00003,28.3,29.6,8,0,0,0.0,0.06,0.00,0.00
15min,AgWx,bigpiney,439,28JAN2019:05:15:00,16.4,12.59,15.3,14.4,13.9,14.4,12.9,70,72,68,0.199,5.9,6.5,5.3,9.14,8.1,313,7.7,9.8,0.00003,0.00004,28.3,29.7,8,0,0,0.0,0.06,0.00,0.00
15min,AgWx,bigpiney,439,28JAN2019:05:30:00,16.2,12.58,16.4,15.8,15.4,15.8,14.5,65,68,62,0.193,5.5,6.0,5.1,11.33,10.0,303,8.3,11.5,0.00007,0.00008,28.2,29.6,8,0,0,0.0,0.06,0.00,0.00
15min,AgWx,bigpiney,439,28JAN2019:05:45:00,16.2,12.57,17.8,17.4,16.7,17.5,15.7,61,63,60,0.198,5.7,5.9,5.2,12.58,12.1,299,6.8,14.8,0.00009,0.00011,28.2,29.6,8,0,0,0.0,0.06,0.00,0.00
15min,AgWx,bigpiney,439,28JAN2019:06:00:00,16.6,12.56,18.0,17.4,17.5,17.8,17.1,59,60,58,0.196,5.5,5.8,5.2,11.2,11.9,302,6.0,15.6,0.00010,0.00012,28.2,29.6,8,0,0,0.0,0.06,0.00,0.00
15min,AgWx,bigpiney,439,28JAN2019:06:15:00,16.9,12.57,17.1,17.0,17.4,17.5,17.0,59,60,59,0.195,5.5,5.7,5.4,8.72,10.6,302,6.4,12.7,0.00009,0.00011,28.1,29.5,8,0,0,0.0,0.06,0.00,0.00
15min,AgWx,bigpiney,439,28JAN2019:06:30:00,17.1,12.55,12.5,13.8,15.9,17.1,13.8,61,63,60,0.180,4.9,5.4,3.7,3.42,8.0,308,11,10.3,0.00006,0.00008,28.1,29.5,8,0,0,0.0,0.06,0.00,0.00
15min,AgWx,bigpiney,439,28JAN2019:06:45:00,16.6,12.55,11.3,11.0,12.1,13.7,11.0,66,68,63,0.171,3.0,3.6,2.6,5.546,5.6,323,20,7.5,0.00002,0.00003,28.0,29.5,8,0,0,0.0,0.06,0.00,0.00
15min,AgWx,bigpiney,439,28JAN2019:07:00:00,15.8,12.55,10.6,9.5,10.4,11.3,9.5,69,71,68,0.165,2.4,3.1,1.7,3.31,4.4,312,11,5.8,-0.00000,0.00000,28.0,29.5,8,0,0,0.0,0.06,0.00,0.00
15min,AgWx,bigpiney,439,28JAN2019:07:15:00,14.7,12.54,12.4,11.2,10.2,11.2,9.5,69,71,68,0.173,2.2,2.9,1.6,6.642,4.0,331,10,6.6,-0.00001,-0.00001,27.9,29.5,8,0,0,0.0,0.06,0.00,0.00
15min,AgWx,bigpiney,439,28JAN2019:07:30:00,13.9,12.54,12.6,11.8,11.4,11.9,10.8,68,68,67,0.177,2.7,3.3,2.2,8.4,7.0,329,7.7,10.5,0.00003,0.00004,27.9,29.5,8,1,0,0.0,0.06,0.00,0.00
15min,AgWx,bigpiney,439,28JAN2019:07:45:00,13.5,12.71,12.7,12.6,13.2,13.7,11.8,67,68,66,0.183,4.3,4.7,3.3,6.752,8.2,317,8.0,10.2,0.00005,0.00006,27.9,29.4,8,6,0,0.0,0.06,0.00,0.00
15min,AgWx,bigpiney,439,28JAN2019:08:00:00,13.6,15.05,12.8,12.1,11.6,12.6,10.9,70,71,68,0.184,3.6,4.1,3.1,8.2,6.3,308,11,9.0,0.00003,0.00012,27.8,29.3,8,39,0,0.0,0.06,0.00,0.00
15min,AgWx,bigpiney,439,28JAN2019:08:15:00,13.9,15,12.8,12.2,12.4,12.8,12.1,69,70,68,0.181,4.1,4.4,3.8,6.664,6.9,299,7.0,9.4,0.00011,0.00022,27.8,29.4,8,74,0,0.0,0.06,0.00,0.00
15min,AgWx,bigpiney,439,28JAN2019:08:30:00,14.7,14.99,14.7,14.0,13.0,14.0,12.2,69,69,68,0.194,4.6,5.3,3.9,6.905,5.8,288,9.7,7.9,0.00017,0.00028,27.7,29.3,8,110,0,0.0,0.06,0.00,0.00
15min,AgWx,bigpiney,439,28JAN2019:08:45:00,15.8,15,15.9,15.3,14.4,15.3,13.8,67,68,67,0.204,5.6,6.4,4.9,5.327,6.3,286,9.0,8.8,0.00027,0.00040,27.7,29.3,8,148,0,0.0,0.06,0.00,0.00